Regional Weather Roundup
Issued by NWS Goodland, KS

Home | Current Version | Previous Version | Text Only | Print | Product List | Glossary Off
Versions: 1 2 3 4 5 6 7 8 9 10 11 12 13 14 15 16 17 18 19 20 21 22 23 24 25 26 27 28 29 30 31 32 33 34 35 36 37 38 39 40 41 42 43 44 45 46 47 48 49 50

532
ASUS43 KGLD 121008
RWRGLD

GOODLAND FORECAST AREA HOURLY WEATHER ROUNDUP
NATIONAL WEATHER SERVICE GOODLAND KS
300 AM MST FRI FEB 12 2016

...OFFICIAL OBSERVATIONS...

CITY           SKY/WX    TMP DP  RH WIND       PRES   REMARKS
GOODLAND KS    CLEAR     29  24  82 W7        30.28R
HILL CITY KS   NOT AVBL
IMPERIAL NEB   CLEAR     30  25  81 W5        30.27R
MCCOOK NEB     CLEAR     29  26  89 NW8       30.28R
AKRON CO       CLOUDY    34  26  72 W12       30.27S
BURLINGTON CO  CLOUDY    31  25  78 W9        30.28S
LIMON CO       CLOUDY    19  17  92 N8        30.31S
$$

...UNOFFICIAL OBSERVATIONS...

CITY           SKY/WX    TMP DP  RH WIND       PRES   REMARKS
COLBY KS       CLEAR     28  28 100 W8        30.29R
GOVE KS          N/A     34  32  92 MISG        N/A
LENORA KS        N/A     32  32 100 MISG        N/A
NORTON KS      CLEAR     28  23  80 N9        30.26
SHARON SPRINGS   N/A     31  27  85 CALM        N/A
KIT CARSON CO    N/A     27  23  83 MISG        N/A
YUMA CO          N/A     29  26  87 CALM        N/A
$$




USA.gov is the U.S. government's official web portal to all federal, state and local government web resources and services.